Home > Weather > Kumamoto > Past weeks

Flag for Japan Past Weather in Kumamoto, Japan — Yesterday and Last 2 Weeks

Now
70 °F

Mild.


Feels Like: 72 °F
Forecast: 65 / 80 °F
Wind: 2 mph from Northeast

Location: Kumamoto

Current Time: May 27, 2016 at 5:33:35 AM

Latest Report: May 27, 2016 at 4:00 AM


Visibility: N/A

Pressure: 29.83 "Hg

Humidity: 76%

Dew Point: 62 °F

Location of KumamotoLocation

Past Weather in Kumamoto — Graph

°F

Kumamoto Temperature Yesterday

Maximum temperature yesterday: 86 °F (at 3:00 PM)
Minimum temperature yesterday: 72 °F (at 4:00 AM)
Average temperature yesterday: 77 °F

High & Low Weather Summary for the Past Weeks

 TemperatureHumidityPressure
High89 °F (May 23, 2:00 PM)100% (May 25, 5:00 AM)30.20 "Hg (May 25, 5:00 AM)
Low48 °F (May 17, 6:00 AM)23% (May 18, 3:00 PM)29.73 "Hg (May 24, 4:00 PM)
Average72 °F63%29.95 "Hg
* Reported May 12 4:00 AM — May 27 4:00 AM, Kumamoto, Weather by CustomWeather, © 2016

Note: Actual official high and low records may vary slightly from our data, if they occured in-between our weather recording intervals... More about our weather records

Advertising

Kumamoto Weather History for the Previous 24 Hours

Scroll right to see more
 ConditionsComfort  
Time TempWeatherWind HumidityBarometerVisibility
4:00 AM
Fri, May 27
70 °FMild.2 mph76%29.83 "HgN/A
3:00 AM70 °FOvercast.2 mph79%29.83 "Hg9 mi
2:00 AM71 °FMild.5 mph71%29.80 "HgN/A
1:00 AM73 °FMild.3 mph71%29.82 "HgN/A
12:00 AM73 °FMild.1 mph72%29.83 "HgN/A
11:00 PM
Thu, May 26
74 °FMild.2 mph72%29.83 "HgN/A
10:00 PM76 °FMild.1 mph65%29.82 "HgN/A
9:00 PM75 °FPassing clouds.3 mph74%29.80 "Hg12 mi
8:00 PM77 °FMild.1 mph76%29.78 "HgN/A
7:00 PM78 °FWarm.7 mph76%29.76 "HgN/A
6:00 PM80 °FScattered clouds.9 mph70%29.75 "Hg12 mi
5:00 PM81 °FWarm.10 mph71%29.74 "HgN/A
4:00 PM81 °FWarm.10 mph68%29.75 "HgN/A
3:00 PM86 °FPartly sunny.13 mph58%29.74 "Hg16 mi
2:00 PM85 °FWarm.8 mph62%29.75 "HgN/A
1:00 PM83 °FWarm.9 mph69%29.77 "HgN/A
12:00 PM80 °FOvercast.2 mph72%29.78 "Hg12 mi
11:00 AM80 °FWarm.3 mph76%29.80 "HgN/A
10:00 AM79 °FWarm.3 mph76%29.81 "HgN/A
9:00 AM77 °FOvercast.3 mph82%29.82 "Hg6 mi
8:00 AM74 °FMild.2 mph88%29.82 "HgN/A
7:00 AM73 °FMild.2 mph93%29.83 "HgN/A
6:00 AM73 °FFog.3 mph93%29.82 "Hg4 mi
5:00 AM73 °FMild.2 mph92%29.83 "HgN/A
Weather by CustomWeather, © 2016

See weather overviewHow to use our weather pages